PWSweather.com
Personal Weather Stations
Station Observations
WESTON01
WestonSuperMareGB BS22 8RT

WestonSuperMareGB BS22 8RT

Lat: 51.351508, Lon: -2.933373

Elevation: 15

Station Type: Fine Offset WH1080

http://www.westonweather.co.uk

Latest ConditionsUpdated 6:10:02 AM GMT Monday, Aug 21, 2017
Currently Today's Max Today's Min Today's Average
Temperature 59.8°F15.4°C 61.4°F16.3°C 59.5°F15.3°C 60.0°F15.6°C
Dew Point 58.1°F14.5°C 59.4°F15.2°C 57.7°F14.3°C 58.2°F14.6°C
Winds Calm Calm 5.9 mph W9.5 kmh W - 1.0 mph 1.6 kmh
Wind Gusts -- 8.6 mph13.8 kmh - -
Humidity 94% 95% 93% 94%
Pressure 30.12 in1020.0 mb 30.12 in1020.0 mb 30.12 in1020.0 mb -
Precipitation - 0.08 in2.0 mm - -
Hour Temp Dew Point Humidity Winds Wind Gusts Pressure Precip Precip Rate Daily Precip Total
06:10 AM 59.8°F15.4°C 58.1°F14.5°C 94% Calm Calm -- 30.12 in1020.0 mb 0.04 in1.0 mm 0.00 in0.0 mm 0.08 in2.0 mm
06:05 AM 59.8°F15.4°C 58.1°F14.5°C 94% Calm Calm -- 30.12 in1020.0 mb 0.04 in1.0 mm 0.48 in12.2 mm 0.08 in2.0 mm
06:00 AM 59.6°F15.3°C 57.9°F14.4°C 94% Calm Calm -- 30.12 in1020.0 mb 0.00 in0.0 mm 0.00 in0.0 mm 0.04 in1.0 mm
05:55 AM 59.6°F15.3°C 57.9°F14.4°C 94% Calm Calm -- 30.12 in1020.0 mb 0.00 in0.0 mm 0.00 in0.0 mm 0.04 in1.0 mm
05:50 AM 59.6°F15.3°C 57.9°F14.4°C 94% 0.1 mph S0.2 kmh S 1.2 mph1.9 kmh 30.12 in1020.0 mb 0.00 in0.0 mm 0.00 in0.0 mm 0.04 in1.0 mm
05:45 AM 59.6°F15.3°C 57.9°F14.4°C 94% 0.2 mph S0.3 kmh S 1.2 mph1.9 kmh 30.12 in1020.0 mb 0.00 in0.0 mm 0.00 in0.0 mm 0.04 in1.0 mm
05:40 AM 59.5°F15.3°C 58.0°F14.4°C 95% Calm Calm -- 30.12 in1020.0 mb 0.00 in0.0 mm 0.00 in0.0 mm 0.04 in1.0 mm
05:35 AM 59.5°F15.3°C 58.0°F14.4°C 95% Calm Calm -- 30.12 in1020.0 mb 0.00 in0.0 mm 0.00 in0.0 mm 0.04 in1.0 mm
05:30 AM 59.5°F15.3°C 58.0°F14.4°C 95% Calm Calm -- 30.12 in1020.0 mb 0.00 in0.0 mm 0.00 in0.0 mm 0.04 in1.0 mm
05:25 AM 59.5°F15.3°C 58.0°F14.4°C 95% Calm Calm -- 30.12 in1020.0 mb 0.00 in0.0 mm 0.00 in0.0 mm 0.04 in1.0 mm
05:20 AM 59.5°F15.3°C 58.0°F14.4°C 95% Calm Calm -- 30.12 in1020.0 mb 0.00 in0.0 mm 0.00 in0.0 mm 0.04 in1.0 mm
05:15 AM 59.5°F15.3°C 58.0°F14.4°C 95% Calm Calm -- 30.12 in1020.0 mb 0.00 in0.0 mm 0.00 in0.0 mm 0.04 in1.0 mm
05:10 AM 59.5°F15.3°C 57.7°F14.3°C 94% Calm Calm -- 30.12 in1020.0 mb 0.00 in0.0 mm 0.00 in0.0 mm 0.04 in1.0 mm
05:05 AM 59.5°F15.3°C 57.7°F14.3°C 94% 0.4 mph W0.6 kmh W 3.0 mph4.8 kmh 30.12 in1020.0 mb 0.00 in0.0 mm 0.00 in0.0 mm 0.04 in1.0 mm
05:00 AM 59.5°F15.3°C 57.7°F14.3°C 94% 0.4 mph W0.6 kmh W 3.0 mph4.8 kmh 30.12 in1020.0 mb 0.00 in0.0 mm 0.00 in0.0 mm 0.04 in1.0 mm
04:55 AM 59.5°F15.3°C 57.7°F14.3°C 94% Calm Calm -- 30.12 in1020.0 mb 0.00 in0.0 mm 0.00 in0.0 mm 0.04 in1.0 mm
04:50 AM 59.5°F15.3°C 57.7°F14.3°C 94% Calm Calm -- 30.12 in1020.0 mb 0.00 in0.0 mm 0.00 in0.0 mm 0.04 in1.0 mm
04:45 AM 59.5°F15.3°C 57.7°F14.3°C 94% Calm Calm -- 30.12 in1020.0 mb 0.00 in0.0 mm 0.00 in0.0 mm 0.04 in1.0 mm
04:40 AM 59.5°F15.3°C 57.7°F14.3°C 94% Calm Calm -- 30.12 in1020.0 mb 0.00 in0.0 mm 0.00 in0.0 mm 0.04 in1.0 mm
04:35 AM 59.5°F15.3°C 57.7°F14.3°C 94% Calm Calm -- 30.12 in1020.0 mb 0.00 in0.0 mm 0.00 in0.0 mm 0.04 in1.0 mm
04:30 AM 59.5°F15.3°C 57.7°F14.3°C 94% Calm Calm -- 30.12 in1020.0 mb 0.00 in0.0 mm 0.00 in0.0 mm 0.04 in1.0 mm
04:25 AM 59.5°F15.3°C 57.7°F14.3°C 94% Calm Calm -- 30.12 in1020.0 mb 0.00 in0.0 mm 0.00 in0.0 mm 0.04 in1.0 mm
04:20 AM 59.5°F15.3°C 57.7°F14.3°C 94% Calm Calm -- 30.12 in1020.0 mb 0.00 in0.0 mm 0.00 in0.0 mm 0.04 in1.0 mm
04:15 AM 59.5°F15.3°C 57.7°F14.3°C 94% Calm Calm -- 30.12 in1020.0 mb 0.00 in0.0 mm 0.00 in0.0 mm 0.04 in1.0 mm
04:10 AM 59.5°F15.3°C 57.7°F14.3°C 94% Calm Calm -- 30.12 in1020.0 mb 0.00 in0.0 mm 0.00 in0.0 mm 0.04 in1.0 mm
04:05 AM 59.5°F15.3°C 57.7°F14.3°C 94% Calm Calm -- 30.12 in1020.0 mb 0.00 in0.0 mm 0.00 in0.0 mm 0.04 in1.0 mm
04:00 AM 59.5°F15.3°C 57.7°F14.3°C 94% Calm Calm -- 30.12 in1020.0 mb 0.00 in0.0 mm 0.00 in0.0 mm 0.04 in1.0 mm
03:55 AM 59.5°F15.3°C 57.7°F14.3°C 94% Calm Calm -- 30.12 in1020.0 mb 0.00 in0.0 mm 0.00 in0.0 mm 0.04 in1.0 mm
03:50 AM 59.5°F15.3°C 57.7°F14.3°C 94% Calm Calm -- 30.12 in1020.0 mb 0.00 in0.0 mm 0.00 in0.0 mm 0.04 in1.0 mm
03:45 AM 59.5°F15.3°C 57.7°F14.3°C 94% Calm Calm -- 30.12 in1020.0 mb 0.00 in0.0 mm 0.00 in0.0 mm 0.04 in1.0 mm
03:40 AM 59.5°F15.3°C 57.7°F14.3°C 94% Calm Calm -- 30.12 in1020.0 mb 0.00 in0.0 mm 0.00 in0.0 mm 0.04 in1.0 mm
03:35 AM 59.5°F15.3°C 57.7°F14.3°C 94% Calm Calm -- 30.12 in1020.0 mb 0.00 in0.0 mm 0.00 in0.0 mm 0.04 in1.0 mm
03:30 AM 59.5°F15.3°C 57.7°F14.3°C 94% Calm Calm -- 30.12 in1020.0 mb 0.00 in0.0 mm 0.00 in0.0 mm 0.04 in1.0 mm
03:25 AM 59.5°F15.3°C 57.7°F14.3°C 94% Calm Calm -- 30.12 in1020.0 mb 0.00 in0.0 mm 0.00 in0.0 mm 0.04 in1.0 mm
03:20 AM 59.5°F15.3°C 57.7°F14.3°C 94% Calm Calm -- 30.12 in1020.0 mb 0.00 in0.0 mm 0.00 in0.0 mm 0.04 in1.0 mm
03:15 AM 59.5°F15.3°C 57.7°F14.3°C 94% Calm Calm -- 30.12 in1020.0 mb 0.00 in0.0 mm 0.00 in0.0 mm 0.04 in1.0 mm
03:10 AM 59.5°F15.3°C 57.7°F14.3°C 94% Calm Calm -- 30.12 in1020.0 mb 0.00 in0.0 mm 0.00 in0.0 mm 0.04 in1.0 mm
03:05 AM 59.6°F15.3°C 57.9°F14.4°C 94% Calm Calm -- 30.12 in1020.0 mb 0.00 in0.0 mm 0.00 in0.0 mm 0.04 in1.0 mm
03:00 AM 59.6°F15.3°C 57.9°F14.4°C 94% Calm Calm -- 30.12 in1020.0 mb 0.00 in0.0 mm 0.00 in0.0 mm 0.04 in1.0 mm
02:55 AM 59.6°F15.3°C 57.9°F14.4°C 94% Calm Calm -- 30.12 in1020.0 mb 0.00 in0.0 mm 0.00 in0.0 mm 0.04 in1.0 mm
02:50 AM 59.6°F15.3°C 57.9°F14.4°C 94% 0.8 mph N1.3 kmh N 2.1 mph3.4 kmh 30.12 in1020.0 mb 0.00 in0.0 mm 0.00 in0.0 mm 0.04 in1.0 mm
02:45 AM 59.8°F15.4°C 58.1°F14.5°C 94% 1.0 mph NNW1.6 kmh NNW 2.1 mph3.4 kmh 30.12 in1020.0 mb 0.00 in0.0 mm 0.00 in0.0 mm 0.04 in1.0 mm
02:40 AM 59.8°F15.4°C 58.1°F14.5°C 94% 0.3 mph NW0.5 kmh NW 1.5 mph2.4 kmh 30.12 in1020.0 mb 0.00 in0.0 mm 0.00 in0.0 mm 0.04 in1.0 mm
02:35 AM 59.8°F15.4°C 58.1°F14.5°C 94% 0.1 mph NW0.2 kmh NW 1.5 mph2.4 kmh 30.12 in1020.0 mb 0.00 in0.0 mm 0.00 in0.0 mm 0.04 in1.0 mm
02:30 AM 59.8°F15.4°C 57.8°F14.3°C 93% Calm Calm -- 30.12 in1020.0 mb 0.00 in0.0 mm 0.00 in0.0 mm 0.04 in1.0 mm
02:25 AM 59.8°F15.4°C 57.8°F14.3°C 93% Calm Calm -- 30.12 in1020.0 mb 0.00 in0.0 mm 0.00 in0.0 mm 0.04 in1.0 mm
02:20 AM 59.8°F15.4°C 57.8°F14.3°C 93% 0.2 mph N0.3 kmh N 1.5 mph2.4 kmh 30.12 in1020.0 mb 0.00 in0.0 mm 0.00 in0.0 mm 0.04 in1.0 mm
02:15 AM 59.8°F15.4°C 57.8°F14.3°C 93% 0.3 mph N0.5 kmh N 1.5 mph2.4 kmh 30.12 in1020.0 mb 0.00 in0.0 mm 0.00 in0.0 mm 0.04 in1.0 mm
02:10 AM 59.8°F15.4°C 57.8°F14.3°C 93% 0.1 mph N0.2 kmh N 1.5 mph2.4 kmh 30.12 in1020.0 mb 0.00 in0.0 mm 0.00 in0.0 mm 0.04 in1.0 mm
02:05 AM 59.8°F15.4°C 57.8°F14.3°C 93% Calm Calm -- 30.12 in1020.0 mb 0.00 in0.0 mm 0.00 in0.0 mm 0.04 in1.0 mm
02:00 AM 60.0°F15.6°C 58.0°F14.4°C 93% Calm Calm -- 30.12 in1020.0 mb 0.00 in0.0 mm 0.00 in0.0 mm 0.04 in1.0 mm
01:55 AM 60.0°F15.6°C 58.0°F14.4°C 93% Calm Calm -- 30.12 in1020.0 mb 0.00 in0.0 mm 0.00 in0.0 mm 0.04 in1.0 mm
01:50 AM 60.2°F15.7°C 58.1°F14.5°C 93% Calm Calm -- 30.12 in1020.0 mb 0.00 in0.0 mm 0.00 in0.0 mm 0.04 in1.0 mm
01:45 AM 60.2°F15.7°C 58.1°F14.5°C 93% 0.5 mph E0.8 kmh E 3.0 mph4.8 kmh 30.12 in1020.0 mb 0.00 in0.0 mm 0.00 in0.0 mm 0.04 in1.0 mm
01:40 AM 60.2°F15.7°C 58.1°F14.5°C 93% 0.4 mph E0.6 kmh E 3.0 mph4.8 kmh 30.12 in1020.0 mb 0.00 in0.0 mm 0.00 in0.0 mm 0.04 in1.0 mm
01:35 AM 60.3°F15.7°C 58.3°F14.6°C 93% Calm Calm -- 30.12 in1020.0 mb 0.00 in0.0 mm 0.00 in0.0 mm 0.04 in1.0 mm
01:30 AM 60.3°F15.7°C 58.3°F14.6°C 93% 0.3 mph NE0.5 kmh NE 1.8 mph2.9 kmh 30.12 in1020.0 mb 0.00 in0.0 mm 0.00 in0.0 mm 0.04 in1.0 mm
01:25 AM 60.5°F15.8°C 58.5°F14.7°C 93% 1.8 mph N2.9 kmh N 3.6 mph5.8 kmh 30.12 in1020.0 mb 0.00 in0.0 mm 0.00 in0.0 mm 0.04 in1.0 mm
01:20 AM 60.7°F15.9°C 58.7°F14.8°C 93% 2.7 mph N4.3 kmh N 4.2 mph6.8 kmh 30.12 in1020.0 mb 0.00 in0.0 mm 0.00 in0.0 mm 0.04 in1.0 mm
01:15 AM 60.9°F16.1°C 58.9°F14.9°C 93% 2.5 mph N4.0 kmh N 4.2 mph6.8 kmh 30.12 in1020.0 mb 0.00 in0.0 mm 0.00 in0.0 mm 0.04 in1.0 mm
01:10 AM 60.9°F16.1°C 58.9°F14.9°C 93% 2.1 mph NNW3.4 kmh NNW 3.6 mph5.8 kmh 30.12 in1020.0 mb 0.00 in0.0 mm 0.00 in0.0 mm 0.04 in1.0 mm
01:05 AM 61.1°F16.2°C 59.0°F15.0°C 93% 2.1 mph NNW3.4 kmh NNW 3.6 mph5.8 kmh 30.12 in1020.0 mb 0.00 in0.0 mm 0.00 in0.0 mm 0.04 in1.0 mm
01:00 AM 61.1°F16.2°C 59.0°F15.0°C 93% 2.4 mph NNW3.9 kmh NNW 3.6 mph5.8 kmh 30.12 in1020.0 mb 0.00 in0.0 mm 0.00 in0.0 mm 0.04 in1.0 mm
12:55 AM 61.3°F16.3°C 59.2°F15.1°C 93% 2.3 mph NW3.7 kmh NW 4.2 mph6.8 kmh 30.12 in1020.0 mb 0.00 in0.0 mm 0.00 in0.0 mm 0.04 in1.0 mm
12:50 AM 61.4°F16.3°C 59.4°F15.2°C 93% 2.8 mph NW4.5 kmh NW 4.5 mph7.2 kmh 30.12 in1020.0 mb 0.00 in0.0 mm 0.00 in0.0 mm 0.04 in1.0 mm
12:45 AM 61.4°F16.3°C 59.4°F15.2°C 93% 4.4 mph NW7.1 kmh NW 7.4 mph11.9 kmh 30.12 in1020.0 mb 0.00 in0.0 mm 0.00 in0.0 mm 0.04 in1.0 mm
12:40 AM 61.4°F16.3°C 59.4°F15.2°C 93% 4.8 mph WNW7.7 kmh WNW 7.4 mph11.9 kmh 30.12 in1020.0 mb 0.00 in0.0 mm 0.00 in0.0 mm 0.04 in1.0 mm
12:35 AM 61.4°F16.3°C 59.4°F15.2°C 93% 5.4 mph W8.7 kmh W 8.6 mph13.8 kmh 30.12 in1020.0 mb 0.00 in0.0 mm 0.00 in0.0 mm 0.04 in1.0 mm
12:30 AM 61.4°F16.3°C 59.4°F15.2°C 93% 5.9 mph W9.5 kmh W 8.6 mph13.8 kmh 30.12 in1020.0 mb 0.00 in0.0 mm 0.00 in0.0 mm 0.04 in1.0 mm
12:25 AM 61.4°F16.3°C 59.4°F15.2°C 93% 5.7 mph W9.2 kmh W 8.0 mph12.9 kmh 30.12 in1020.0 mb 0.00 in0.0 mm 0.00 in0.0 mm 0.04 in1.0 mm
12:20 AM 61.4°F16.3°C 59.4°F15.2°C 93% 5.2 mph W8.4 kmh W 8.0 mph12.9 kmh 30.12 in1020.0 mb 0.00 in0.0 mm 0.00 in0.0 mm 0.04 in1.0 mm
12:15 AM 61.4°F16.3°C 59.4°F15.2°C 93% 5.1 mph WNW8.2 kmh WNW 8.0 mph12.9 kmh 30.12 in1020.0 mb 0.04 in1.0 mm 0.00 in0.0 mm 0.04 in1.0 mm
12:10 AM 61.4°F16.3°C 59.4°F15.2°C 93% 5.1 mph WNW8.2 kmh WNW 7.4 mph11.9 kmh 30.12 in1020.0 mb 0.04 in1.0 mm 0.00 in0.0 mm 0.04 in1.0 mm
12:05 AM 61.4°F16.3°C 59.4°F15.2°C 93% 5.0 mph W8.0 kmh W 7.4 mph11.9 kmh 30.12 in1020.0 mb 0.04 in1.0 mm 0.00 in0.0 mm 0.04 in1.0 mm
12:00 AM 61.3°F16.3°C 59.2°F15.1°C 93% 5.1 mph W8.2 kmh W 7.1 mph11.4 kmh 30.12 in1020.0 mb 0.04 in1.0 mm 0.00 in0.0 mm 0.04 in1.0 mm